Location: Pebble Beach Sunset Acres
(33.0837°N, 96.4508°W)
Time: 17:48:47
(UTC+00:00)

DELTA 2 R/B (1) - Pass Details

Date: 26 June 2022
Orbit: 790 x 802 km, 39.6° (Epoch: 18 August)

Event Time Altitude Azimuth Distance (km) Brightness Sun altitude
Rises 04:07:34 0° 293° (WNW) 3,300 7.7 -24.3°
Reaches altitude 10° 04:10:05 10° 297° (WNW) 2,370 6.8 -24.6°
Maximum altitude 04:15:37 61° 17° (NNE) 906 3.9 -25.3°
Enters shadow 04:17:11 44° 73° (ENE) 1,095 4.1 -25.4°
